ATLAS 5 CENTAUR DEB, 46842

Orbit data source: Space-Track

ATLAS 5 CENTAUR DEB, 46842 is space debris in HEO originally from a launch on Wed, 17 Oct 2018 UTC launched from the Air Force Eastern Test Range (AFETR). Debris objects in space refer to the collection of defunct objects orbiting the Earth. Examples of debris include non-operational satellites, rocket bodies, and fragments generated from explosions, collisions, or faulty payload assembly.

Loading next visibility...
Identifier
46842, 2018-079CX
Orbit
HEO
Country
Flag of USUS
Related business
Flag of USUnited Launch Alliance/Lockheed Martin (US)
Manufacturer
ULA Decatur
Mission
Spacecraft
Bus & Motor
Unknown
Mass
Unknown
Launch date (UTC)
2018-10-17 (8 years ago)
Launch vehicle
Unknown
Launch site
Air Force Eastern Test Range (AFETR)
Object type
Payload
Rocket body
Debris
Shape & HBR
Unknown shape, 1.1 m
Radar Cross Section
RCS unknown

Expand to show TLE details & history
Last TLE update: 2 years ago

TLE from 2 years ago
0 ATLAS 5 CENTAUR DEB
1 46842U 18079CX  24362.97292055 -.00000100  00000-0  00000+0 0  9996
2 46842  12.0675  98.8629 4659351 185.4466 166.7003  1.74985537 26905
Epoch: 2024-12-27T23:21Z
TLE epoch observation values (Epoch: 2024-12-27T23:21:00.335Z)
Latitude
0.00002°
Longitude
11.61922°
Altitude
36,126.598 km
Speed
2.248 km/s
True Right ascension
06h 35m 12s
True Declination
0° 00' 00"
Sunlit
Object was in daylight at epoch
Visualization orbit readout
Latitude
Unknown
Longitude
Unknown
Altitude
Unknown
Speed
Unknown
Apparent Right ascension
Unknown
Apparent Declination
Unknown
Sunlit
N/A
Visualization observer readout
Local Sidereal Time
19:24:57
Azimuth
Unknown
Elevation
Unknown
Doppler factor
Unknown
Orbital elements
Apogee altitude
36,267.955 km
Perigee altitude
9,158.554 km
Semi-major axis
29,091.392 km
Eccentricity
0.46594
Inclination
12.0675°
RAAN
98.8629°
Arg. of periapsis
185.4466°
True anomaly
174.50935°
Mean anomaly
166.7003°
Eccentric anomaly
170.91541°
Mean motion
0.43742 °/min
Orbital period
823.01 mins
BSTAR
0
Loading maneuver chart data...
Computing Atmospheric mass density...

Documentation

Showing up to 5 results
|